Regional Weather Roundup
Issued by NWS

Home | Current Version | Previous Version | Graphics & Text | Print | Product List | Glossary On
Versions: 1 2 3 4 5 6 7 8 9 10 11 12 13 14 15 16 17 18 19 20 21 22 23 24 25 26 27 28 29
000
ASUS45 KBOI 240610
RWRID
WEATHER ROUNDUP FOR IDAHO
NATIONAL WEATHER SERVICE BOISE ID
1200 AM MDT FRI OCT 24 2014

NOTE: "FAIR" INDICATES FEW OR NO CLOUDS BELOW 12000 FEET
WITH NO SIGNIFICANT WEATHER AND/OR OBSTRUCTIONS TO VISIBILITY

IDZ012-014-240700-
SOUTHWEST IDAHO


CITY           SKY/WX    TMP DP  RH WIND       PRES   REMARKS
BOISE          CLOUDY    52  48  86 SE3       30.08S
CALDWELL       CLOUDY    52  43  71 S6        30.10S
MOUNTAIN HOME  CLOUDY    54  50  87 N6        30.10R FOG
$$

IDZ016-017-240700-
SOUTHCENTRAL IDAHO


CITY           SKY/WX    TMP DP  RH WIND       PRES   REMARKS
BURLEY         PTCLDY    44  37  76 SW3       30.11R
JEROME         MOCLDY    51  41  68 SE7       30.11R
TWIN FALLS     CLOUDY    55  39  54 SW7       30.12S HAZE
$$

IDZ019>023-240700-
SOUTHEAST IDAHO


CITY           SKY/WX    TMP DP  RH WIND       PRES   REMARKS
IDAHO FALLS    CLOUDY    53  35  50 S8        30.13R
POCATELLO      CLOUDY    45  35  68 SE5       30.12F
REXBURG        CLOUDY    51  33  50 S9        30.12R
$$

IDZ006-010-011-018-031-032-240700-
CENTRAL IDAHO MOUNTAINS


CITY           SKY/WX    TMP DP  RH WIND       PRES   REMARKS
MCCALL         LGT RAIN  41  40  96 E6        30.08R
HAILEY         CLOUDY    46  43  87 N5        30.12F
STANLEY          N/A     41  38  89 N7        30.12R
SALMON         CLOUDY    50  41  71 E5        30.00S
CHALLIS        MOCLDY    48  38  68 CALM      30.05R
$$

IDZ002-004-006-007-026-240700-
NORTHERN IDAHO


CITY           SKY/WX    TMP DP  RH WIND       PRES   REMARKS
LEWISTON       CLOUDY    53  47  79 E8        30.01R
LOWELL           N/A     51  50  96 CALM      30.04R
COEUR D`ALENE  CLOUDY    48  43  81 SW7       29.96R
MULLAN PASS    CLOUDY    33  32  96 SW12G22   29.97R WCI  24
$$



USA.gov is the U.S. government's official web portal to all federal, state and local government web resources and services.